Location: Ahausen
(50.4985°N, 8.2722°E)
Time: 15:42:49
(UTC+00:00)

ATLAS CENTAUR R/B - Pass Details

Date: 18 September 2020
Orbit: 479 x 667 km, 64.7° (Epoch: 12 October)

Event Time Altitude Azimuth Distance (km) Brightness Sun altitude
Rises 19:28:10 0° 286° (WNW) 2,624 6.4 -18.4°
Reaches altitude 10° 19:31:35 10° 318° (NW) 1,705 4.9 -18.9°
Maximum altitude 19:33:10 12° 343° (NNW) 1,561 4.2 -19.1°
Drops below altitude 10° 19:34:44 10° 8° (N) 1,683 4.0 -19.3°
Enters shadow 19:37:33 - 37° (NE) 2,389 4.5 -19.7°
